Date String (YYYY-MM-DD hh:mm:ss) UTC,Instrument flags,Ambient pressure (hPa),Sample flow (lpm),Bypass flow (lpm),Sample temperature (°C),Ambient temperature (°C),ASC tube jacket temperature (°C),LED temperature (°C),Box temperature (°C),Sample RH (%),Span deviation,Mass concentration (μg/m³),Mass concentration (μg/m³),Mass concentration (μg/m³)
DateTimeUTC,F1_M11,P_M11,Q1_M11,Q2_M11,T1_M11,T2_M11,T3_M11,T4_M11,T5_M11,U1_M11,ZSPAN_M11,X0_M11,X2_M11,X1_M11
2022-11-15 09:00:00,,0830.1,5.00,0.00,22.4,21.4,00.0,31.3,24.2,14.3,0000.0,0002.40,0001.60,0001.32
2022-11-15 09:01:00,,0830.1,5.00,0.00,22.4,21.3,00.0,31.3,24.2,14.3,0000.0,0002.33,0001.60,0001.33
2022-11-15 09:02:00,,0830.1,5.00,0.00,22.4,21.3,00.0,31.3,24.2,14.3,0000.0,0002.37,0001.61,0001.33
2022-11-15 09:03:00,,0830.1,5.00,0.00,22.4,21.2,00.0,31.3,24.2,14.3,0000.0,0002.41,0001.63,0001.35
2022-11-15 09:04:00,,0830.1,5.00,0.00,22.4,21.2,00.0,31.3,24.2,14.3,0000.0,0002.40,0001.64,0001.36
2022-11-15 09:05:00,,0830.3,5.00,0.00,22.4,21.1,00.0,31.3,24.2,14.3,0000.0,0002.35,0001.63,0001.38
2022-11-15 09:06:00,,0830.3,5.01,0.00,22.4,21.1,00.0,31.3,24.2,14.2,0000.0,0002.41,0001.62,0001.38
2022-11-15 09:07:00,,0830.2,5.01,0.00,22.4,21.1,00.0,31.3,24.2,14.2,0000.0,0002.52,0001.61,0001.39
2022-11-15 09:08:00,,0830.2,5.00,0.00,22.4,21.1,00.0,31.3,24.2,14.2,0000.0,0004.10,0001.65,0001.41
2022-11-15 09:09:00,,0830.2,5.01,0.00,22.4,21.1,00.0,31.3,24.1,14.2,0000.0,0004.22,0001.71,0001.43
2022-11-15 09:10:00,,0830.1,4.99,0.00,22.4,21.1,00.0,31.3,24.1,14.2,0000.0,0004.21,0001.70,0001.42
2022-11-15 09:11:00,,0830.1,4.99,0.00,22.4,21.1,00.0,31.3,24.1,14.2,0000.0,0004.19,0001.68,0001.42
2022-11-15 09:12:00,,0830.1,4.99,0.00,22.4,21.0,00.0,31.3,24.1,14.2,0000.0,0004.22,0001.71,0001.43
2022-11-15 09:13:00,,0830.1,5.00,0.00,22.4,21.0,00.0,31.2,24.1,14.2,0000.0,0004.24,0001.72,0001.43
2022-11-15 09:14:00,,0830.1,5.02,0.00,22.3,21.0,00.0,31.2,24.1,14.2,0000.0,0004.27,0001.74,0001.44
2022-11-15 09:15:00,,0830.1,5.00,0.00,22.3,21.0,00.0,31.2,24.1,14.2,0000.0,0004.37,0001.75,0001.45
2022-11-15 09:16:00,,0830.1,4.99,0.00,22.3,21.0,00.0,31.2,24.1,14.2,0000.0,0004.38,0001.75,0001.46
2022-11-15 09:17:00,,0830.1,5.00,0.00,22.3,21.0,00.0,31.2,24.1,14.2,0000.0,0004.44,0001.78,0001.46
2022-11-15 09:18:00,,0830.1,5.00,0.00,22.3,21.0,00.0,31.2,24.1,14.2,0000.0,0004.41,0001.77,0001.46
2022-11-15 09:19:00,,0830.1,5.00,0.00,22.3,20.9,00.0,31.2,24.1,14.2,0000.0,0002.83,0001.76,0001.46
2022-11-15 09:20:00,,0830.2,5.00,0.00,22.3,20.9,00.0,31.2,24.1,14.2,0000.0,0002.88,0001.76,0001.45
2022-11-15 09:21:00,,0830.1,5.00,0.00,22.3,20.9,00.0,31.2,24.1,14.2,0000.0,0003.00,0001.79,0001.46
2022-11-15 09:22:00,,0830.1,5.00,0.00,22.3,20.9,00.0,31.2,24.1,14.2,0000.0,0002.98,0001.78,0001.46
2022-11-15 09:23:00,,0830.1,5.00,0.00,22.3,20.9,00.0,31.2,24.1,14.3,0000.0,0003.02,0001.79,0001.46
2022-11-15 09:24:00,,0830.2,5.00,0.00,22.3,20.9,00.0,31.2,24.0,14.3,0000.0,0003.32,0001.77,0001.46
2022-11-15 09:25:00,,0830.2,5.00,0.00,22.3,20.9,00.0,31.2,24.1,14.3,0000.0,0003.69,0001.77,0001.46
2022-11-15 09:26:00,,0830.2,5.01,0.00,22.3,20.9,00.0,31.2,24.1,14.3,0000.0,0003.55,0001.74,0001.46
2022-11-15 09:27:00,,0830.2,5.00,0.00,22.3,21.0,00.0,31.1,24.1,14.3,0000.0,0003.57,0001.74,0001.45
2022-11-15 09:28:00,,0830.2,5.00,0.00,22.3,21.7,00.0,31.1,24.2,14.2,0000.0,0003.53,0001.74,0001.45
2022-11-15 09:29:00,,0830.2,4.99,0.00,22.4,22.3,00.0,31.1,24.4,14.2,0000.0,0003.49,0001.75,0001.45
2022-11-15 09:30:00,,0830.2,4.99,0.00,22.5,22.2,00.0,31.2,24.4,14.2,0000.0,0003.50,0001.75,0001.45
2022-11-15 09:31:00,,0830.2,5.01,0.00,22.5,21.9,00.0,31.2,24.4,14.2,0000.0,0003.34,0001.72,0001.45
2022-11-15 09:32:00,,0830.2,5.00,0.00,22.5,21.7,00.0,31.3,24.3,14.2,0000.0,0003.24,0001.71,0001.45
2022-11-15 09:33:00,,0830.2,5.00,0.00,22.5,21.5,00.0,31.3,24.3,14.2,0000.0,0003.34,0001.73,0001.45
2022-11-15 09:34:00,,0830.2,5.00,0.00,22.5,21.4,00.0,31.3,24.3,14.2,0000.0,0004.13,0001.72,0001.45
2022-11-15 09:35:00,,0830.2,5.00,0.00,22.4,21.4,00.0,31.3,24.3,14.2,0000.0,0003.86,0001.72,0001.44
2022-11-15 09:36:00,,0830.2,5.00,0.00,22.4,21.3,00.0,31.3,24.3,14.2,0000.0,0003.40,0001.72,0001.45
2022-11-15 09:37:00,,0830.2,5.00,0.00,22.4,21.3,00.0,31.3,24.3,14.2,0000.0,0003.28,0001.71,0001.45
2022-11-15 09:38:00,,0830.2,5.00,0.00,22.4,21.2,00.0,31.3,24.3,14.2,0000.0,0003.34,0001.72,0001.45
2022-11-15 09:39:00,,0830.1,5.01,0.00,22.4,21.2,00.0,31.3,24.2,14.2,0000.0,0003.34,0001.70,0001.46
2022-11-15 09:40:00,,0830.2,5.01,0.00,22.4,21.2,00.0,31.3,24.2,14.2,0000.0,0003.29,0001.69,0001.47
2022-11-15 09:41:00,,0830.2,4.99,0.00,22.4,21.1,00.0,31.3,24.2,14.3,0000.0,0003.28,0001.69,0001.47
2022-11-15 09:42:00,,0830.1,5.00,0.00,22.4,21.1,00.0,31.3,24.2,14.3,0000.0,0003.28,0001.69,0001.48
2022-11-15 09:43:00,,0830.2,5.00,0.00,22.4,21.1,00.0,31.3,24.2,14.3,0000.0,0003.31,0001.69,0001.49
2022-11-15 09:44:00,,0830.1,5.02,0.00,22.4,21.1,00.0,31.3,24.2,14.3,0000.0,0003.18,0001.66,0001.48
2022-11-15 09:45:00,,0830.1,5.00,0.00,22.4,21.0,00.0,31.3,24.2,14.3,0000.0,0002.41,0001.67,0001.48
2022-11-15 09:46:00,,0830.2,4.99,0.00,22.4,21.0,00.0,31.3,24.2,14.3,0000.0,0002.40,0001.67,0001.50
2022-11-15 09:47:00,,0830.1,4.99,0.00,22.4,21.0,00.0,31.3,24.2,14.3,0000.0,0002.38,0001.67,0001.50
2022-11-15 09:48:00,,0830.1,5.00,0.00,22.3,21.0,00.0,31.3,24.1,14.3,0000.0,0002.36,0001.66,0001.49
2022-11-15 09:49:00,,0830.1,5.00,0.00,22.3,21.0,00.0,31.3,24.1,14.3,0000.0,0002.30,0001.65,0001.49
2022-11-15 09:50:00,,0830.1,5.00,0.00,22.3,21.0,00.0,31.2,24.1,14.3,0000.0,0002.27,0001.66,0001.49
2022-11-15 09:51:00,,0830.2,5.00,0.00,22.3,20.9,00.0,31.2,24.1,14.4,0000.0,0002.31,0001.68,0001.50
2022-11-15 09:52:00,,0830.2,5.00,0.00,22.3,20.9,00.0,31.2,24.1,14.4,0000.0,0002.34,0001.69,0001.50
2022-11-15 09:53:00,,0830.1,4.99,0.00,22.3,20.8,00.0,31.2,24.1,14.4,0000.0,0002.44,0001.69,0001.49
2022-11-15 09:54:00,,0830.1,5.01,0.00,22.3,20.8,00.0,31.2,24.0,14.4,0000.0,0003.13,0001.67,0001.48
2022-11-15 09:55:00,,0830.1,5.01,0.00,22.3,20.8,00.0,31.2,24.0,14.4,0000.0,0003.17,0001.69,0001.49
2022-11-15 09:56:00,,0830.1,5.00,0.00,22.3,20.8,00.0,31.2,24.0,14.5,0000.0,0003.15,0001.70,0001.48
2022-11-15 09:57:00,,0830.1,4.99,0.00,22.2,20.7,00.0,31.2,24.0,14.5,0000.0,0003.14,0001.69,0001.48
2022-11-15 09:58:00,,0830.1,4.99,0.00,22.2,20.7,00.0,31.2,24.0,14.5,0000.0,0003.20,0001.70,0001.47
2022-11-15 09:59:00,,0830.2,5.00,0.00,22.2,20.9,00.0,31.2,24.0,14.5,0000.0,0003.28,0001.74,0001.47
